EW5858 Weather Reports


time (UTC)temp
C
wind
direction
speed
KPH
gust
KPH
rain 1hr
cm
rain 24hr
cm
rain mn
cm
humidity
%
barometer
mb
20260509163736 20 166 3.2 9.7 0.00 0.00 0.00 52 1003.9
20260509163233 19 61 3.2 6.4 0.00 0.00 0.00 53 1004.0
20260509162734 19 83 3.2 6.4 0.00 0.00 0.00 53 1004.0
20260509162234 19 84 3.2 8.0 0.00 0.00 0.00 54 1003.8
20260509161734 19 176 3.2 8.0 0.00 0.00 0.00 56 1004.1
20260509161231 19 132 3.2 11.3 0.00 0.00 0.00 56 1004.0
20260509160732 19 81 3.2 11.3 0.00 0.00 0.00 57 1004.0
20260509160500 18 77 3.2 6.4 0.00 0.00 0.00 57 1003.9
20260509155729 18 285 3.2 12.9 0.00 0.00 0.00 55 1004.0
20260509155226 18 145 3.2 12.9 0.00 0.00 0.00 56 1003.9
20260509154727 18 183 3.2 9.7 0.00 0.00 0.00 56 1003.9
20260509154226 18 289 3.2 9.7 0.00 0.00 0.00 55 1003.9
20260509153727 18 107 3.2 11.3 0.00 0.00 0.00 57 1003.8
20260509153227 18 73 3.2 11.3 0.00 0.00 0.00 57 1003.8
20260509152726 18 314 3.2 8.0 0.00 0.00 0.00 56 1003.8
20260509152457 18 89 3.2 8.0 0.00 0.00 0.00 57 1003.8
20260509151957 18 100 3.2 9.7 0.00 0.00 0.00 58 1003.7
20260509151227 18 202 3.2 9.7 0.00 0.00 0.00 58 1003.8
20260509150724 17 107 3.2 8.0 0.00 0.00 0.00 60 1003.8
20260509150223 17 0 3.2 6.4 0.00 0.00 0.00 61 1003.8
20260509145721 17 179 3.2 6.4 0.00 0.00 0.00 61 1003.8
20260509145221 17 99 3.2 14.5 0.00 0.00 0.00 63 1003.8
20260509144721 17 151 3.2 14.5 0.00 0.00 0.00 63 1003.8
20260509144221 16 104 3.2 9.7 0.00 0.00 0.00 65 1003.8
20260509143721 16 236 3.2 8.0 0.00 0.00 0.00 66 1003.8
20260509143222 16 244 3.2 8.0 0.00 0.00 0.00 67 1003.7
20260509142721 16 154 3.2 9.7 0.00 0.00 0.00 67 1003.8
20260509142221 16 210 3.2 9.7 0.00 0.00 0.00 67 1003.8
20260509141722 16 22 3.2 9.7 0.00 0.00 0.00 68 1003.7
20260509141222 16 95 3.2 9.7 0.00 0.00 0.00 69 1003.7
20260509140722 15 86 3.2 8.0 0.00 0.00 0.00 71 1003.7
20260509140452 15 110 3.2 8.0 0.00 0.00 0.00 71 1003.6
20260509135719 15 157 3.2 8.0 0.00 0.00 0.00 72 1003.7
20260509135219 15 132 3.2 8.0 0.00 0.00 0.00 72 1003.6
20260509134719 15 132 3.2 8.0 0.00 0.00 0.00 74 1003.4
20260509134215 15 89 3.2 8.0 0.00 0.00 0.00 73 1003.4
20260509133716 15 79 3.2 9.7 0.00 0.00 0.00 75 1003.5
20260509133213 15 87 3.2 9.7 0.00 0.00 0.00 76 1003.5
20260509132714 14 141 3.2 9.7 0.00 0.00 0.00 76 1003.6
20260509132213 14 90 3.2 8.0 0.00 0.00 0.00 77 1003.7
20260509131713 14 121 3.2 8.0 0.00 0.00 0.00 77 1003.8
20260509131213 14 53 3.2 8.0 0.00 0.00 0.00 78 1003.7
20260509130945 13 11 3.2 8.0 0.00 0.00 0.00 78 1003.8
20260509130214 13 150 3.2 8.0 0.00 0.00 0.00 79 1003.8
20260509125710 13 131 3.2 8.0 0.00 0.00 0.00 79 1003.8
20260509125210 13 108 3.2 8.0 0.00 0.00 0.00 80 1003.7
20260509124707 13 106 4.8 9.7 0.00 0.00 0.00 80 1003.7
20260509124208 13 122 3.2 9.7 0.00 0.00 0.00 81 1003.7
20260509123706 13 141 3.2 8.0 0.00 0.00 0.00 81 1003.7
20260509123205 13 103 3.2 6.4 0.00 0.00 0.00 82 1003.8
20260509122705 12 26 3.2 6.4 0.00 0.00 0.00 82 1003.7
20260509122205 12 73 3.2 6.4 0.00 0.00 0.00 82 1003.8
20260509121705 12 104 1.6 6.4 0.00 0.00 0.00 82 1003.8
20260509121204 12 62 3.2 8.0 0.00 0.00 0.00 82 1003.7
20260509120704 12 94 3.2 8.0 0.00 0.00 0.00 83 1003.7
20260509120203 12 331 3.2 8.0 0.00 0.00 0.00 83 1003.7
20260509115934 12 93 1.6 6.4 0.00 0.00 0.00 84 1003.7
20260509115203 12 0 3.2 6.4 0.00 0.00 0.00 84 1003.7
20260509114701 12 104 3.2 6.4 0.00 0.00 0.00 84 1003.6
20260509114201 12 344 3.2 6.4 0.00 0.00 0.00 84 1003.5
20260509113702 12 68 3.2 6.4 0.00 0.00 0.00 84 1003.4
20260509113154 12 57 3.2 4.8 0.00 0.00 0.00 84 1003.4
20260509112654 12 102 3.2 4.8 0.00 0.00 0.00 84 1003.3
20260509112154 12 107 3.2 6.4 0.00 0.00 0.00 84 1003.3
20260509111654 12 96 1.6 8.0 0.00 0.00 0.00 84 1003.2
20260509111154 12 10 3.2 8.0 0.00 0.00 0.00 84 1003.3
20260509110926 12 49 1.6 4.8 0.00 0.00 0.00 84 1003.4
20260509110153 12 114 1.6 6.4 0.00 0.00 0.00 84 1003.4
20260509105654 12 92 1.6 6.4 0.00 0.00 0.00 84 1003.0
20260509105155 12 81 1.6 6.4 0.00 0.00 0.00 83 1003.0
20260509104656 12 345 3.2 6.4 0.00 0.00 0.00 84 1003.1
20260509104155 12 0 1.6 4.8 0.00 0.00 0.00 84 1003.0
20260509103654 12 91 1.6 4.8 0.00 0.00 0.00 84 1003.0
20260509103154 12 0 1.6 4.8 0.00 0.00 0.00 84 1003.0
20260509102651 12 20 1.6 4.8 0.00 0.00 0.00 84 1003.0
20260509102424 12 97 1.6 4.8 0.00 0.00 0.00 85 1003.0
20260509101652 12 70 1.6 4.8 0.00 0.00 0.00 85 1003.0
20260509101152 12 72 3.2 8.0 0.00 0.00 0.00 85 1003.0
20260509100921 12 111 3.2 8.0 0.00 0.00 0.00 86 1003.1
20260509100150 12 79 1.6 6.4 0.00 0.00 0.00 86 1003.1
20260509095914 12 47 1.6 6.4 0.00 0.00 0.00 86 1003.2
20260509095145 12 80 3.2 6.4 0.00 0.00 0.00 87 1003.3
20260509094644 12 75 3.2 6.4 0.00 0.00 0.00 87 1003.4
20260509094143 12 41 3.2 6.4 0.00 0.00 0.00 87 1003.5
20260509093641 12 116 3.2 6.4 0.00 0.00 0.00 87 1003.6
20260509093411 12 45 3.2 8.0 0.00 0.00 0.00 87 1003.8
20260509092646 12 90 3.2 8.0 0.00 0.00 0.00 87 1003.7
20260509092641 -17 106 3.2 8.0 0.00 0.00 0.00
20260509091641 12 75 1.6 6.4 0.00 0.00 0.00 87 1003.7
20260509091141 12 102 1.6 6.4 0.00 0.00 0.00 87 1003.7
20260509090638 11 57 1.6 6.4 0.00 0.00 0.00 87 1003.7
20260509090138 12 60 1.6 8.0 0.00 0.00 0.00 87 1003.7
20260509085639 11 41 3.2 8.0 0.00 0.00 0.00 87 1003.8
20260509085138 11 94 3.2 4.8 0.00 0.00 0.00 87 1003.9
20260509084638 11 87 3.2 8.0 0.00 0.00 0.00 87 1003.9
20260509084138 12 31 3.2 8.0 0.00 0.00 0.00 87 1003.9
20260509083643 12 341 3.2 9.7 0.00 0.00 0.00 86 1003.8
20260509083139 12 18 3.2 9.7 0.00 0.00 0.00 86 1003.9
20260509082640 12 79 3.2 6.4 0.00 0.00 0.00 86 1003.9
20260509082136 12 60 1.6 6.4 0.00 0.00 0.00 86 1003.9
20260509081636 12 86 3.2 6.4 0.00 0.00 0.00 85 1003.8
20260509081140 12 92 3.2 6.4 0.00 0.00 0.00 85 1003.8
20260509081136 12 74 3.2 6.4 0.00 0.00 0.00 85 1003.8
20260509080136 12 93 3.2 6.4 0.00 0.00 0.00 85 1003.8
20260509075907 12 83 3.2 6.4 0.00 0.00 0.00 85 1003.8
20260509075136 12 87 3.2 6.4 0.00 0.00 0.00 84 1003.8
20260509074636 12 89 1.6 6.4 0.00 0.00 0.00 84 1003.9
20260509074407 12 164 1.6 6.4 0.00 0.00 0.00 84 1004.0
20260509073637 12 318 1.6 6.4 0.00 0.00 0.00 83 1004.0
20260509073134 12 76 3.2 6.4 0.00 0.00 0.00 83 1004.1
20260509072634 12 96 3.2 6.4 0.00 0.00 0.00 83 1004.1
20260509072403 12 25 3.2 6.4 0.00 0.00 0.00 82 1004.3
20260509071627 12 70 3.2 6.4 0.00 0.00 0.00 82 1004.3
20260509071122 12 76 3.2 4.8 0.00 0.00 0.00 82 1004.4
20260509070619 12 82 3.2 6.4 0.00 0.00 0.00 82 1004.5
20260509070120 12 81 3.2 6.4 0.00 0.00 0.00 82 1004.5
20260509065618 12 91 3.2 6.4 0.00 0.00 0.00 82 1004.6
20260509065349 12 87 3.2 6.4 0.00 0.00 0.00 82 1004.6
20260509064620 12 71 3.2 4.8 0.00 0.00 0.00 82 1004.7
20260509064121 12 81 1.6 4.8 0.00 0.00 0.00 82 1004.7
20260509063616 12 104 3.2 6.4 0.00 0.00 0.00 82 1004.8
20260509063114 13 100 3.2 6.4 0.00 0.00 0.00 82 1004.8
20260509062842 13 66 3.2 4.8 0.00 0.00 0.00 82 1004.8
20260509062716 13 105 3.2 6.4 0.00 0.00 0.00 82 1004.8
20260509061608 13 114 3.2 6.4 0.00 0.00 0.00 82 1004.9
20260509061335 13 52 3.2 6.4 0.00 0.00 0.00 82 1004.9
20260509060601 13 56 3.2 6.4 0.00 0.00 0.00 82 1005.0
20260509055600 13 0 3.2 6.4 0.00 0.00 0.00 81 1005.2
20260509055055 13 107 3.2 6.4 0.00 0.00 0.00 81 1005.1
20260509054827 13 57 3.2 6.4 0.00 0.00 0.00 81 1005.2
20260509054056 13 103 1.6 6.4 0.00 0.00 0.00 81 1005.2
20260509053556 13 52 3.2 6.4 0.00 0.00 0.00 80 1005.2
20260509053057 13 101 3.2 6.4 0.00 0.00 0.00 80 1005.2
20260509052553 13 75 1.6 6.4 0.00 0.00 0.00 80 1005.2
20260509052050 13 95 3.2 8.0 0.00 0.00 0.00 80 1005.2
20260509051551 13 56 3.2 8.0 0.00 0.00 0.00 79 1005.0
20260509051047 13 106 3.2 4.8 0.00 0.00 0.00 79 1004.9
20260509050547 13 94 3.2 8.0 0.00 0.00 0.00 79 1005.2
20260509050047 13 83 3.2 8.0 0.00 0.00 0.00 79 1005.2
20260509045818 13 53 1.6 4.8 0.00 0.00 0.00 78 1005.1
20260509045045 13 95 1.6 4.8 0.00 0.00 0.00 78 1005.0
20260509044544 12 35 1.6 4.8 0.00 0.00 0.00 78 1005.0
20260509044046 12 6 1.6 4.8 0.00 0.00 0.00 78 1005.2
20260509043545 12 97 1.6 4.8 0.00 0.00 0.00 78 1005.3
20260509043046 12 69 1.6 4.8 0.00 0.00 0.00 78 1005.3
20260509042545 12 78 1.6 4.8 0.00 0.00 0.00 77 1005.3
20260509042046 12 74 1.6 4.8 0.00 0.00 0.00 78 1005.2
20260509041545 12 90 1.6 4.8 0.00 0.00 0.00 78 1005.2
20260509041045 12 70 1.6 4.8 0.00 0.00 0.00 78 1005.2
20260509040545 12 101 1.6 4.8 0.00 0.00 0.00 78 1005.2
20260509040042 12 313 1.6 6.4 0.00 0.00 0.00 78 1005.2
20260509035542 11 353 1.6 6.4 0.00 0.00 0.00 79 1005.3
20260509035042 11 82 1.6 4.8 0.00 0.00 0.00 79 1005.3
20260509034813 11 103 1.6 3.2 0.00 0.00 0.00 80 1005.5
20260509034313 11 79 1.6 3.2 0.00 0.00 0.00 80 1005.6
20260509033543 10 0 0.0 3.2 0.00 0.00 0.00 80 1005.5
20260509033037 10 52 1.6 3.2 0.00 0.00 0.00 79 1005.5
20260509032809 10 90 1.6 3.2 0.00 0.00 0.00 80 1005.6
20260509032037 11 73 0.0 3.2 0.00 0.00 0.00 79 1005.5
20260509031537 11 73 1.6 3.2 0.00 0.00 0.00 79 1005.6
20260509031305 11 92 1.6 3.2 0.00 0.00 0.00 78 1005.6
20260509031139 11 80 1.6 3.2 0.00 0.00 0.00 78 1005.6
20260509030035 11 76 0.0 3.2 0.00 0.00 0.00 78 1005.6
20260509025534 11 104 0.0 3.2 0.00 0.00 0.00 78 1005.7
20260509025032 11 103 0.0 3.2 0.00 0.00 0.00 77 1005.7
20260509024532 11 119 0.0 3.2 0.00 0.00 0.00 76 1005.7
20260509024028 11 0 0.0 3.2 0.00 0.00 0.00 76 1005.7
20260509023525 11 0 0.0 3.2 0.00 0.00 0.00 76 1005.8
20260509023257 11 0 0.0 3.2 0.00 0.00 0.00 75 1005.9
20260509022527 11 27 0.0 3.2 0.00 0.00 0.00 75 1005.9
20260509022027 11 0 0.0 3.2 0.00 0.00 0.00 75 1006.0
20260509021758 11 0 0.0 4.8 0.00 0.00 0.00 75 1006.0
20260509021026 11 0 0.0 4.8 0.00 0.00 0.00 74 1006.0
20260509020526 11 80 0.0 3.2 0.00 0.00 0.00 74 1006.0
20260509020024 11 17 0.0 3.2 0.00 0.00 0.00 74 1006.0
20260509015523 11 5 0.0 3.2 0.00 0.00 0.00 73 1006.0
20260509015254 11 0 0.0 3.2 0.00 0.00 0.00 73 1006.0
20260509014520 11 1 1.6 4.8 0.00 0.00 0.00 72 1005.9
20260509014021 11 10 0.0 4.8 0.00 0.00 0.00 72 1005.9
20260509013521 11 0 0.0 4.8 0.00 0.00 0.00 70 1006.0
20260509013017 12 14 1.6 4.8 0.00 0.00 0.00 70 1006.0
20260509012518 12 77 1.6 3.2 0.00 0.00 0.00 69 1005.9
20260509012019 12 0 1.6 4.8 0.00 0.00 0.00 68 1005.9
20260509011518 12 0 1.6 4.8 0.00 0.00 0.00 67 1005.9
20260509011018 12 0 0.0 3.2 0.00 0.00 0.00 66 1005.9
20260509010517 12 7 0.0 3.2 0.00 0.00 0.00 65 1005.9
20260509010014 12 14 1.6 3.2 0.00 0.00 0.00 64 1005.9
20260509005513 12 43 1.6 3.2 0.00 0.00 0.00 63 1005.9
20260509005012 12 25 1.6 3.2 0.00 0.00 0.00 62 1005.9
20260509004512 12 0 1.6 3.2 0.00 0.00 0.00 61 1005.9
20260509004012 12 0 1.6 4.8 0.00 0.00 0.00 60 1005.9
20260509003510 13 66 1.6 4.8 0.00 0.00 0.00 59 1005.9
20260509003009 13 8 1.6 3.2 0.00 0.00 0.00 58 1006.0
20260509002507 13 357 1.6 3.2 0.00 0.00 0.00 58 1006.0
20260509002007 13 0 1.6 3.2 0.00 0.00 0.00 57 1006.1
20260509001508 13 0 1.6 4.8 0.00 0.00 0.00 57 1006.1
20260509001007 13 351 1.6 4.8 0.00 0.00 0.00 55 1006.1
20260509000507 13 34 1.6 3.2 0.00 0.00 0.00 54 1006.1
20260509000007 13 0 1.6 4.8 0.00 0.00 0.00 53 1006.1
20260508235506 13 0 1.6 4.8 0.00 0.00 0.00 54 1006.2
20260508235000 13 349 1.6 4.8 0.00 0.00 0.00 53 1006.2
20260508234502 14 312 1.6 4.8 0.00 0.00 0.00 52 1006.3
20260508234230 14 72 3.2 6.4 0.00 0.00 0.00 50 1006.3
20260508233458 15 297 1.6 6.4 0.00 0.00 0.00 48 1006.3
20260508232959 15 313 1.6 6.4 0.00 0.00 0.00 46 1006.3
20260508232456 16 318 1.6 6.4 0.00 0.00 0.00 45 1006.3
20260508231957 16 29 1.6 3.2 0.00 0.00 0.00 46 1006.3
20260508231453 15 344 1.6 3.2 0.00 0.00 0.00 47 1006.4
20260508230954 16 10 1.6 3.2 0.00 0.00 0.00 47 1006.4
20260508230453 15 348 1.6 6.4 0.00 0.00 0.00 47 1006.5
20260508225955 15 73 1.6 9.7 0.00 0.00 0.00 47 1006.4
20260508225452 15 20 1.6 9.7 0.00 0.00 0.00 47 1006.5
20260508225228 15 334 1.6 6.4 0.00 0.00 0.00 51 1006.5
20260508224449 15 353 1.6 6.4 0.00 0.00 0.00 50 1006.5
20260508223948 15 340 3.2 6.4 0.00 0.00 0.00 49 1006.4
20260508223448 15 35 3.2 8.0 0.00 0.00 0.00 46 1006.5
20260508223219 14 80 1.6 8.0 0.00 0.00 0.00 46 1006.5
20260508222448 14 31 1.6 6.4 0.00 0.00 0.00 49 1006.6
20260508221948 14 17 1.6 6.4 0.00 0.00 0.00 49 1006.6
20260508221448 14 75 1.6 4.8 0.00 0.00 0.00 48 1006.6
20260508220945 14 301 1.6 4.8 0.00 0.00 0.00 48 1006.6
20260508220716 14 57 1.6 6.4 0.00 0.00 0.00 46 1006.6
20260508215945 14 315 1.6 6.4 0.00 0.00 0.00 45 1006.7
20260508215443 14 285 1.6 6.4 0.00 0.00 0.00 45 1006.8
20260508214942 15 0 1.6 6.4 0.00 0.00 0.00 43 1006.8
20260508214439 15 138 3.2 9.7 0.00 0.00 0.00 44 1006.8
20260508213939 15 335 3.2 9.7 0.00 0.00 0.00 45 1006.8
20260508213710 15 46 3.2 9.7 0.00 0.00 0.00 46 1006.8
20260508212940 15 292 3.2 8.0 0.00 0.03 0.00 43 1006.8
20260508212437 15 351 3.2 9.7 0.00 0.08 0.00 43 1007.0
20260508211937 15 111 3.2 9.7 0.00 0.08 0.00 39 1007.0
20260508211707 15 0 3.2 9.7 0.00 0.10 0.00 42 1007.0
20260508211541 15 321 3.2 11.3 0.00 0.10 0.00 45 1006.9
20260508210709 16 313 3.2 11.3 0.00 0.13 0.00 44 1006.9
20260508205937 15 4 1.6 8.0 0.00 0.15 0.00 48 1006.9
20260508205437 15 334 1.6 8.0 0.00 0.18 0.00 44 1006.9
20260508204934 15 282 3.2 8.0 0.00 0.20 0.00 42 1007.0
20260508204707 16 328 3.2 8.0 0.00 0.20 0.00 42 1007.0
20260508203935 16 177 3.2 11.3 0.00 0.20 0.00 39 1007.1
20260508203434 16 302 3.2 11.3 0.00 0.20 0.00 42 1007.2
20260508202932 16 326 3.2 8.0 0.00 0.20 0.00 39 1007.2
20260508202708 16 274 3.2 8.0 0.00 0.20 0.00 38 1007.3
20260508201932 16 317 3.2 9.7 0.00 0.20 0.00 39 1007.4
20260508201432 16 50 3.2 9.7 0.00 0.20 0.00 38 1007.5
20260508200932 16 301 3.2 9.7 0.00 0.20 0.00 39 1007.6
20260508200433 16 15 3.2 9.7 0.00 0.20 0.00 39 1007.6
20260508195933 16 273 3.2 9.7 0.00 0.20 0.00 39 1007.7
20260508195432 16 276 3.2 9.7 0.00 0.20 0.00 40 1007.8
20260508195203 16 272 3.2 9.7 0.00 0.20 0.00 37 1007.9
20260508194432 16 289 3.2 8.0 0.00 0.20 0.00 37 1007.9
20260508193932 16 194 3.2 4.8 0.00 0.20 0.00 44 1008.0
20260508193432 16 5 3.2 6.4 0.00 0.20 0.00 40 1008.1
20260508193200 16 359 3.2 11.3 0.00 0.20 0.00 39 1008.1
20260508192429 16 359 3.2 11.3 0.00 0.20 0.00 38 1008.1
20260508191926 16 333 3.2 11.3 0.00 0.20 0.00 41 1008.1
20260508191426 16 301 3.2 6.4 0.00 0.20 0.00 38 1008.1
20260508190927 16 280 3.2 11.3 0.00 0.20 0.00 38 1008.2
20260508190426 16 279 3.2 11.3 0.00 0.20 0.00 36 1008.2
20260508185927 16 90 3.2 9.7 0.00 0.20 0.00 41 1008.4
20260508185427 16 10 3.2 9.7 0.00 0.20 0.00 39 1008.4
20260508184927 16 349 3.2 11.3 0.00 0.20 0.00 44 1008.6
20260508184425 16 323 3.2 11.3 0.00 0.20 0.00 45 1008.7
20260508183921 16 341 3.2 9.7 0.00 0.20 0.00 46 1008.7
20260508183421 16 298 3.2 9.7 0.00 0.20 0.00 46 1008.7
20260508182918 16 6 3.2 9.7 0.00 0.20 0.00 41 1008.8
20260508182647 16 240 3.2 9.7 0.00 0.20 0.00 40 1008.8
20260508181912 16 4 3.2 9.7 0.00 0.20 0.00 44 1008.9
20260508181413 16 31 3.2 8.0 0.00 0.20 0.00 42 1008.9
20260508180910 16 28 3.2 8.0 0.00 0.20 0.00 39 1008.9
20260508180409 16 353 3.2 8.0 0.00 0.20 0.00 41 1009.0
20260508175910 16 279 3.2 6.4 0.00 0.20 0.00 45 1009.0
20260508175410 16 321 3.2 6.4 0.00 0.20 0.00 44 1009.1
20260508174904 16 14 3.2 11.3 0.00 0.20 0.00 47 1009.2
20260508174404 16 42 3.2 11.3 0.00 0.20 0.00 46 1009.3
20260508173904 16 17 3.2 9.7 0.00 0.20 0.00 50 1009.4
20260508173404 16 295 3.2 9.7 0.00 0.20 0.00 47 1009.5
20260508172905 16 294 3.2 11.3 0.00 0.20 0.00 48 1009.6
20260508172401 16 353 3.2 11.3 0.00 0.20 0.00 46 1009.6
20260508171902 16 12 3.2 8.0 0.00 0.20 0.00 45 1009.7
20260508171359 16 351 1.6 8.0 0.00 0.20 0.00 45 1009.7
20260508170857 16 283 1.6 6.4 0.00 0.20 0.00 45 1009.9
20260508170627 16 58 1.6 9.7 0.00 0.20 0.00 50 1009.8
20260508165854 16 233 3.2 9.7 0.00 0.20 0.00 47 1009.8
20260508165354 16 306 3.2 8.0 0.00 0.20 0.00 44 1009.9
20260508165125 16 246 3.2 8.0 0.00 0.20 0.00 50 1010.1
20260508164625 16 298 3.2 11.3 0.00 0.20 0.00 50 1010.1
20260508163853 15 265 3.2 11.3 0.00 0.20 0.00 47 1010.2